Weather History for Jackson, WY

Change the Weather History Date:

Sunday, December 1, 2013

  Actual Average Record
Temperature  
Mean Temperature 34 °F -  
Max Temperature 37 °F 28 °F 46 °F (2008)
Min Temperature 32 °F 4 °F -18 °F (1991)
Degree Days  
Heating Degree Days 30    
Moisture  
Dew Point 32 °F    
Average Humidity 92    
Maximum Humidity 100    
Minimum Humidity 75    
Precipitation  
Precipitation 0.14 in - - ()
Sea Level Pressure  
Sea Level Pressure 30.08 in    
Wind  
Wind Speed 10 mph (South)    
Max Wind Speed 25 mph    
Max Gust Speed 40 mph    
Visibility 6 miles    
Events Snow    
Averages and records for this station are not official NWS values.
T = Trace of Precipitation, MM = Missing Value Source: NWS Daily Summary

Daily Weather History Graph

Daily Weather History Graph

Search for Another Location

Airport:

Trip Planner

Search our weather history database for the weather conditions in past years. The results will help you decide how hot, cold, wet, or windy it might be!

Date:

Astronomy

Dec. 01, 2013 Rise Set
Actual Time 7:36 AM MST 4:47 PM MST
Civil Twilight 7:04 AM MST 5:19 PM MST
Nautical Twilight 6:28 AM MST 5:55 PM MST
Astronomical Twilight 5:54 AM MST 6:29 PM MST
Moon 5:56 AM MST (12/1) 4:02 PM MST (12/1)
Length of Visible Light 10h 14m
Length of Day
9h 10m
Waning Crescent, 2% of the Moon is Illuminated
Dec 1
Waning Crescent
Dec 2
New
Dec 9
First Quarter
Dec 17
Full
Dec 25
Last Quarter

Hourly Weather History & Observations

Time (MST) Temp. Windchill Dew Point Humidity Pressure Visibility Wind Dir Wind Speed Gust Speed Precip Events Conditions
12:15 AM 32.0 °F - 30.2 °F 93% 30.22 in 10.0 mi Calm Calm - N/A   Overcast
12:35 AM 32.0 °F - 30.2 °F 93% 30.22 in 10.0 mi Calm Calm - N/A   Overcast
12:55 AM 33.8 °F - 30.2 °F 87% 30.21 in 8.0 mi Calm Calm - N/A   Overcast
1:15 AM 32.0 °F - 30.2 °F 93% 30.21 in 10.0 mi Calm Calm - N/A   Overcast
1:35 AM 32.0 °F - 30.2 °F 93% 30.21 in 6.0 mi Calm Calm - N/A   Overcast
1:55 AM 32.0 °F 28.7 °F 30.2 °F 93% 30.20 in 8.0 mi East 3.5 mph - N/A   Overcast
2:15 AM 33.8 °F - 30.2 °F 87% 30.19 in 10.0 mi Calm Calm - N/A   Overcast
2:35 AM 33.8 °F 25.8 °F 30.2 °F 87% 30.19 in 6.0 mi SSW 10.4 mph - N/A   Overcast
2:55 AM 33.8 °F 25.8 °F 30.2 °F 87% 30.19 in 9.0 mi South 10.4 mph - N/A   Overcast
3:15 AM 33.8 °F 25.3 °F 30.2 °F 87% 30.19 in 10.0 mi South 11.5 mph - N/A   Overcast
3:35 AM 33.8 °F 24.8 °F 30.2 °F 87% 30.19 in 9.0 mi South 12.7 mph - N/A   Overcast
3:55 AM 33.8 °F 24.3 °F 30.2 °F 87% 30.18 in 10.0 mi South 13.8 mph 18.4 mph N/A   Overcast
4:15 AM 33.8 °F 23.5 °F 30.2 °F 87% 30.17 in 10.0 mi South 16.1 mph 23.0 mph N/A   Overcast
4:35 AM 33.8 °F 24.3 °F 30.2 °F 87% 30.17 in 10.0 mi South 13.8 mph - N/A   Overcast
4:55 AM 33.8 °F 27.0 °F 30.2 °F 87% 30.16 in 10.0 mi SSE 8.1 mph - N/A   Overcast
5:15 AM 33.8 °F 29.6 °F 30.2 °F 87% 30.16 in 10.0 mi SW 4.6 mph - N/A   Overcast
5:35 AM 33.8 °F 26.4 °F 30.2 °F 87% 30.15 in 6.0 mi South 9.2 mph - N/A   Overcast
5:55 AM 33.8 °F 25.3 °F 30.2 °F 87% 30.15 in 8.0 mi South 11.5 mph - N/A   Overcast
6:15 AM 33.8 °F 23.5 °F 32.0 °F 93% 30.15 in 9.0 mi South 16.1 mph - N/A   Overcast
6:35 AM 33.8 °F 24.8 °F 30.2 °F 87% 30.15 in 10.0 mi South 12.7 mph - N/A   Overcast
6:53 AM 35.6 °F 26.2 °F 28.4 °F 75% 30.14 in 10.0 mi South 15.0 mph 19.6 mph N/A Snow Light Snow
7:52 AM 35.6 °F 24.5 °F 30.2 °F 81% 30.13 in 5.0 mi South 20.7 mph 27.6 mph N/A Snow Light Snow
8:26 AM 33.8 °F 22.8 °F 32.0 °F 93% 30.14 in 2.0 mi SSE 18.4 mph 21.9 mph N/A Snow Light Snow
8:51 AM 33.8 °F 23.5 °F 33.8 °F 100% 30.14 in 1.5 mi SE 16.1 mph 20.7 mph N/A Snow Light Snow
9:57 AM 33.8 °F 22.8 °F 33.8 °F 100% 30.10 in 0.8 mi SSE 18.4 mph - N/A Snow Light Snow
10:55 AM 33.8 °F 21.6 °F 33.8 °F 100% 30.09 in 1.0 mi SSE 23.0 mph 29.9 mph N/A Snow Light Snow
11:08 AM 33.8 °F 22.5 °F 33.8 °F 100% 30.09 in 3.0 mi South 19.6 mph 26.5 mph N/A Snow Light Snow
11:57 AM 33.8 °F 21.9 °F 33.8 °F 100% 30.05 in 1.5 mi SSE 21.9 mph 23.0 mph N/A Snow Light Snow
12:35 PM 33.8 °F 21.6 °F 33.8 °F 100% 30.02 in 2.5 mi SSE 23.0 mph 29.9 mph N/A Snow Light Snow
12:52 PM 33.8 °F 21.0 °F 33.8 °F 100% 30.02 in 2.0 mi SSE 25.3 mph 31.1 mph N/A Snow Light Snow
2:00 PM 33.8 °F 23.2 °F 33.8 °F 100% 30.01 in 0.8 mi South 17.3 mph 24.2 mph N/A Snow Light Snow
2:52 PM 33.8 °F 22.2 °F 33.8 °F 100% 29.98 in 0.8 mi South 20.7 mph 28.8 mph N/A Snow Light Snow
3:55 PM 33.8 °F 22.5 °F 33.8 °F 100% 29.98 in 0.8 mi SSE 19.6 mph 25.3 mph N/A Snow Light Snow
4:56 PM 33.8 °F 22.8 °F 33.8 °F 100% 29.88 in 1.0 mi South 18.4 mph - N/A Snow Light Snow
5:59 PM 33.8 °F 22.5 °F 33.8 °F 100% 29.97 in 4.0 mi South 19.6 mph - N/A Snow Light Snow
6:52 PM 33.8 °F 23.9 °F 33.8 °F 100% 29.97 in 5.0 mi South 15.0 mph - N/A Snow Light Snow
7:59 PM 33.8 °F 23.9 °F 32.0 °F 93% 29.96 in 10.0 mi South 15.0 mph - N/A Snow Snow Showers
8:55 PM 35.6 °F 27.1 °F 33.8 °F 93% 29.96 in 7.0 mi SSW 12.7 mph 18.4 mph 0.02 in   Overcast
9:15 PM 33.8 °F 27.0 °F 32.0 °F 93% 29.95 in 5.0 mi SW 8.1 mph - 0.01 in   Overcast
9:35 PM 35.6 °F 25.5 °F 33.8 °F 93% 29.94 in 7.0 mi South 17.3 mph 26.5 mph 0.03 in   Overcast
9:55 PM 35.6 °F 27.1 °F 33.8 °F 93% 29.93 in 7.0 mi SSW 12.7 mph 18.4 mph 0.06 in   Overcast
10:15 PM 35.6 °F 25.9 °F 33.8 °F 93% 29.92 in 5.0 mi South 16.1 mph - 0.03 in   Overcast
10:35 PM 35.6 °F 25.9 °F 33.8 °F 93% 29.92 in 7.0 mi South 16.1 mph 25.3 mph 0.05 in   Overcast
10:55 PM 37.4 °F 26.9 °F 35.6 °F 93% 29.91 in 10.0 mi SSW 20.7 mph 29.9 mph 0.05 in   Overcast
11:15 PM 37.4 °F 27.2 °F 35.6 °F 93% 29.90 in 8.0 mi SSW 19.6 mph 31.1 mph N/A   Mostly Cloudy
11:35 PM 37.4 °F 26.6 °F 33.8 °F 87% 29.90 in 10.0 mi SSW 21.9 mph 28.8 mph 0.01 in   Overcast
11:55 PM 37.4 °F 26.9 °F 33.8 °F 87% 29.90 in 10.0 mi SW 20.7 mph 40.3 mph 0.01 in   Overcast